Zurück zum Katalog

FENGYUN 1C DEB

AktivPO
NORAD 32303·DEBRIS·🇨🇳 China

Gestartet May 10, 1999 von Taiyuan Satellite Launch Center

Loading…

Nächste Überflüge (nächste 24 Stunden)

TLE

AlterndSource: Space-Track

Epoche: Sep 6, 2026, 03:44 UTC

1 32303U 99025CWU 26249.15610783  .00003270  00000-0  13138-2 0  9990
2 32303  97.8092  19.4481 0087390 236.3629 122.9194 14.26669035660454

Verfolge FENGYUN 1C DEB in Echtzeit mit AllMySat

Download on the App Store